FW2897 Weather Reports


Display with metric or nautical units.
time (UTC)temp
F
wind
direction
speed
MPH
gust
MPH
rain 1hr
in
rain 24hr
in
rain mn
in
humidity
%
barometer
mb
20260506230514 69 238 1.0 6.0 0.00 0.07 0.07 74 1007.9
20260506230013 69 245 1.0 6.0 0.00 0.07 0.07 74 1007.9
20260506225516 70 256 1.0 5.0 0.00 0.07 0.07 74 1008.1
20260506224955 70 198 2.0 6.0 0.00 0.07 0.07 74 1008.0
20260506224430 70 251 1.0 6.0 0.00 0.07 0.07 74 1008.1
20260506223909 70 190 1.0 6.0 0.00 0.07 0.07 74 1008.0
20260506223414 70 160 1.0 4.0 0.00 0.07 0.07 74 1008.1
20260506223410 70 206 1.0 4.0 0.00 0.07 0.07 74 1008.1
20260506222411 70 193 1.0 5.0 0.00 0.07 0.07 73 1008.0
20260506222112 70 224 1.0 5.0 0.00 0.07 0.07 73 1007.8
20260506221346 70 336 1.0 8.0 0.00 0.07 0.07 73 1007.6
20260506220857 70 212 2.0 8.0 0.00 0.07 0.07 72 1007.6
20260506220323 70 297 2.0 6.0 0.00 0.07 0.07 72 1007.9
20260506215758 71 316 2.0 6.0 0.00 0.07 0.07 71 1007.9
20260506215456 71 247 2.0 8.0 0.00 0.07 0.07 71 1007.9
20260506214703 70 226 2.0 8.0 0.00 0.07 0.07 72 1007.8
20260506214200 70 302 2.0 8.0 0.00 0.07 0.07 72 1007.8
20260506213635 70 188 2.0 10.0 0.00 0.07 0.07 71 1007.8
20260506213344 71 239 2.0 10.0 0.00 0.07 0.07 71 1007.8
20260506212541 71 234 1.0 9.0 0.00 0.07 0.07 70 1007.8
20260506212040 72 316 2.0 5.0 0.00 0.07 0.07 71 1007.7
20260506211742 72 220 2.0 6.0 0.00 0.07 0.07 71 1007.7
20260506211007 72 252 1.0 6.0 0.00 0.07 0.07 71 1007.6
20260506210731 71 252 2.0 8.0 0.00 0.07 0.07 73 1007.7
20260506210003 70 209 2.0 8.0 0.00 0.07 0.07 73 1007.7
20260506205439 70 236 2.0 7.0 0.00 0.07 0.07 73 1007.6
20260506204915 70 258 2.0 6.0 0.00 0.07 0.07 74 1007.6
20260506204415 69 206 2.0 8.0 0.00 0.07 0.07 74 1007.8
20260506203917 69 231 2.0 8.0 0.00 0.07 0.07 74 1007.6
20260506203415 69 250 2.0 9.0 0.00 0.07 0.07 74 1007.6
20260506203125 69 16 3.0 9.0 0.00 0.07 0.07 74 1007.6
20260506202346 69 342 3.0 9.0 0.00 0.07 0.07 74 1007.5
20260506201843 70 154 2.0 9.0 0.00 0.07 0.07 74 1007.4
20260506201544 69 349 2.0 7.0 0.00 0.07 0.07 75 1007.4
20260506200811 69 267 3.0 8.0 0.00 0.07 0.07 76 1007.5
20260506200309 68 101 2.0 8.0 0.00 0.07 0.07 76 1007.4
20260506200019 68 226 2.0 8.0 0.00 0.07 0.07 77 1007.5
20260506195235 67 236 2.0 8.0 0.00 0.07 0.07 78 1007.6
20260506194734 67 347 2.0 8.0 0.00 0.07 0.07 78 1007.8
20260506194206 67 233 2.0 8.0 0.00 0.07 0.07 78 1007.8
20260506193704 66 288 3.0 12.0 0.00 0.07 0.07 78 1007.9
20260506193136 66 354 3.0 10.0 0.00 0.07 0.07 78 1008.0
20260506192635 66 169 2.0 8.0 0.00 0.07 0.07 78 1008.0
20260506192106 66 75 2.0 7.0 0.00 0.07 0.07 78 1008.0
20260506191539 66 200 2.0 7.0 0.00 0.07 0.07 78 1008.2
20260506191034 66 308 2.0 9.0 0.00 0.07 0.07 78 1008.2
20260506190755 66 273 2.0 9.0 0.00 0.07 0.07 78 1008.2
20260506190004 66 173 2.0 8.0 0.00 0.07 0.07 79 1008.2
20260506185502 66 249 2.0 8.0 0.00 0.07 0.07 79 1008.3
20260506185155 66 237 3.0 9.0 0.00 0.07 0.07 79 1008.2
20260506184656 66 99 3.0 9.0 0.00 0.07 0.07 79 1008.2
20260506183908 65 203 3.0 9.0 0.00 0.07 0.07 79 1008.2
20260506183341 65 325 2.0 9.0 0.00 0.07 0.07 80 1008.4
20260506182813 65 232 2.0 14.0 0.00 0.07 0.07 80 1008.4
20260506182532 65 214 2.0 14.0 0.00 0.07 0.07 80 1008.4
20260506182008 65 291 2.0 5.0 0.00 0.07 0.07 81 1008.5
20260506181218 65 176 2.0 11.0 0.00 0.07 0.07 81 1008.6
20260506180705 65 193 3.0 11.0 0.00 0.07 0.07 81 1008.6
20260506180220 64 226 3.0 13.0 0.00 0.07 0.07 82 1008.6
20260506175640 64 340 2.0 13.0 0.00 0.07 0.07 82 1008.7
20260506175137 64 220 2.0 9.0 0.00 0.07 0.07 83 1008.6
20260506174625 64 227 2.0 9.0 0.00 0.07 0.07 83 1008.6
20260506174618 64 136 2.0 13.0 0.00 0.07 0.07 83 1008.7
20260506173600 64 205 3.0 13.0 0.00 0.07 0.07 82 1008.7
20260506173100 64 257 4.0 10.0 0.00 0.07 0.07 82 1008.8
20260506172530 64 232 3.0 10.0 0.00 0.07 0.07 82 1008.7
20260506172028 64 257 3.0 6.0 0.00 0.07 0.07 82 1008.8
20260506171459 64 197 3.0 10.0 0.01 0.07 0.07 82 1008.7
20260506170959 64 182 3.0 11.0 0.01 0.07 0.07 82 1008.8
20260506170431 64 200 3.0 11.0 0.02 0.07 0.07 83 1008.9
20260506165906 64 179 4.0 12.0 0.02 0.07 0.07 83 1009.0
20260506165341 64 229 4.0 12.0 0.02 0.07 0.07 83 1009.1
20260506164839 63 193 4.0 11.0 0.03 0.07 0.07 83 1009.2
20260506164341 63 202 3.0 11.0 0.03 0.07 0.07 83 1009.1
20260506163814 64 157 3.0 11.0 0.04 0.07 0.07 83 1009.2
20260506163314 64 228 4.0 11.0 0.05 0.07 0.07 82 1009.1
20260506162758 64 144 3.0 9.0 0.05 0.07 0.07 82 1009.2
20260506162256 64 194 2.0 9.0 0.05 0.07 0.07 83 1009.3
20260506161755 64 216 2.0 8.0 0.06 0.07 0.07 83 1009.2
20260506161249 64 176 2.0 8.0 0.05 0.06 0.06 83 1009.4
20260506160952 64 149 3.0 8.0 0.05 0.05 0.05 82 1009.5
20260506160236 64 241 2.0 8.0 0.05 0.05 0.05 82 1009.6
20260506155728 64 226 1.0 8.0 0.05 0.05 0.05 82 1009.9
20260506155159 64 266 1.0 8.0 0.05 0.05 0.05 81 1010.0
20260506154637 64 208 1.0 3.0 0.04 0.04 0.04 81 1010.1
20260506154138 64 258 1.0 8.0 0.03 0.03 0.03 80 1010.0
20260506153636 64 210 2.0 8.0 0.03 0.03 0.03 79 1010.0
20260506153138 65 201 2.0 12.0 0.02 0.02 0.02 78 1010.0
20260506152841 65 123 1.0 6.0 0.02 0.02 0.02 79 1010.0
20260506152113 65 233 1.0 7.0 0.02 0.02 0.02 78 1010.0
20260506151555 65 248 2.0 7.0 0.01 0.01 0.01 76 1009.8
20260506151032 66 228 2.0 9.0 0.00 0.00 0.00 74 1009.9
20260506150528 67 250 2.0 9.0 0.00 0.00 0.00 73 1009.8
20260506150030 67 63 2.0 14.0 0.00 0.00 0.00 71 1010.0
20260506145508 67 223 2.0 14.0 0.00 0.00 0.00 70 1009.8
20260506145232 68 100 2.0 9.0 0.00 0.00 0.00 68 1009.8
20260506144732 68 232 3.0 8.0 0.00 0.00 0.00 67 1009.9
20260506144719 68 177 3.0 9.0 0.00 0.00 0.00 67 1009.9
20260506143436 68 198 3.0 8.0 0.00 0.00 0.00 67 1009.9
20260506142915 68 230 3.0 12.0 0.00 0.00 0.00 67 1009.8
20260506142412 68 174 3.0 12.0 0.00 0.00 0.00 67 1010.1
20260506141847 68 248 2.0 15.0 0.00 0.00 0.00 66 1010.1
20260506141321 69 255 3.0 15.0 0.00 0.00 0.00 66 1010.0
20260506140759 69 224 4.0 16.0 0.00 0.00 0.00 65 1010.0
20260506140232 69 213 5.0 15.0 0.00 0.00 0.00 65 1009.9
20260506135701 70 148 4.0 16.0 0.00 0.00 0.00 64 1010.0
20260506135136 70 203 4.0 17.0 0.00 0.00 0.00 64 1009.7
20260506134855 70 296 4.0 17.0 0.00 0.00 0.00 65 1009.8
20260506134109 69 217 4.0 13.0 0.00 0.00 0.00 66 1009.7
20260506133606 68 218 2.0 12.0 0.00 0.00 0.00 66 1009.8
20260506133103 68 109 2.0 12.0 0.00 0.00 0.00 68 1009.8
20260506132534 67 203 3.0 12.0 0.00 0.00 0.00 68 1009.9
20260506132009 67 143 3.0 12.0 0.00 0.00 0.00 68 1009.9
20260506131502 67 349 2.0 10.0 0.00 0.00 0.00 69 1009.9
20260506131442 67 213 2.0 11.0 0.00 0.00 0.00 69 1009.9
20260506130452 67 155 4.0 16.0 0.00 0.00 0.00 69 1010.0
20260506125923 67 200 3.0 16.0 0.00 0.00 0.00 69 1010.0
20260506125422 67 63 2.0 8.0 0.00 0.00 0.00 70 1010.3
20260506124852 67 217 4.0 12.0 0.00 0.00 0.00 70 1010.4
20260506124350 67 188 4.0 12.0 0.00 0.00 0.00 70 1010.3
20260506123850 67 311 3.0 11.0 0.00 0.00 0.00 71 1010.1
20260506123343 67 237 4.0 10.0 0.00 0.00 0.00 71 1010.3
20260506123055 67 205 4.0 12.0 0.00 0.00 0.00 72 1010.3
20260506122333 67 161 3.0 10.0 0.00 0.00 0.00 72 1010.1
20260506121806 66 249 3.0 11.0 0.00 0.00 0.00 73 1010.3
20260506121305 66 184 4.0 10.0 0.00 0.00 0.00 73 1010.1
20260506121025 67 218 4.0 10.0 0.00 0.00 0.00 72 1010.1
20260506120257 67 223 4.0 10.0 0.00 0.00 0.00 72 1010.1
20260506115729 67 193 4.0 10.0 0.00 0.00 0.00 73 1010.1
20260506115227 67 210 3.0 10.0 0.00 0.00 0.00 74 1010.0
20260506114722 66 212 2.0 8.0 0.00 0.00 0.00 75 1010.0
20260506114222 65 229 2.0 8.0 0.00 0.00 0.00 76 1010.0
20260506113708 65 220 2.0 6.0 0.00 0.00 0.00 77 1009.9
20260506113211 65 206 2.0 8.0 0.00 0.00 0.00 77 1010.0
20260506112642 65 184 2.0 8.0 0.00 0.00 0.00 77 1010.0
20260506112141 64 224 2.0 9.0 0.00 0.00 0.00 77 1010.0
20260506111615 64 171 3.0 9.0 0.00 0.00 0.00 78 1010.0
20260506111050 64 194 2.0 7.0 0.00 0.00 0.00 78 1010.0
20260506110520 64 146 2.0 6.0 0.00 0.00 0.00 78 1010.0
20260506110019 64 206 2.0 9.0 0.00 0.00 0.00 78 1009.9
20260506105453 64 247 2.0 9.0 0.00 0.00 0.00 79 1009.9
20260506104941 64 231 2.0 7.0 0.00 0.00 0.00 79 1009.9
20260506104444 63 241 2.0 7.0 0.00 0.00 0.00 79 1009.9
20260506103914 63 241 3.0 9.0 0.00 0.00 0.00 79 1009.9
20260506103415 63 156 3.0 9.0 0.00 0.00 0.00 79 1010.0
20260506102900 63 262 3.0 7.0 0.00 0.00 0.00 80 1010.0
20260506102404 63 161 4.0 7.0 0.00 0.00 0.00 80 1009.9
20260506101834 63 239 3.0 9.0 0.00 0.00 0.00 80 1010.0
20260506101333 63 222 2.0 9.0 0.00 0.00 0.00 80 1010.0
20260506100804 63 259 2.0 7.0 0.00 0.00 0.00 80 1009.9
20260506100304 63 190 2.0 7.0 0.00 0.00 0.00 80 1009.8
20260506095802 63 113 2.0 7.0 0.00 0.00 0.00 80 1009.8
20260506095529 63 224 2.0 8.0 0.00 0.00 0.00 80 1009.9
20260506094727 63 198 2.0 8.0 0.00 0.00 0.00 80 1010.0
20260506094159 63 252 2.0 6.0 0.00 0.00 0.00 80 1010.0
20260506093657 63 223 2.0 7.0 0.00 0.00 0.00 79 1010.0
20260506093128 64 208 2.0 7.0 0.00 0.00 0.00 79 1009.9
20260506092602 64 236 2.0 7.0 0.00 0.00 0.00 79 1010.0
20260506092036 64 238 2.0 7.0 0.00 0.00 0.00 79 1009.9
20260506091535 64 249 2.0 7.0 0.00 0.00 0.00 79 1009.9
20260506091034 64 232 1.0 9.0 0.00 0.00 0.00 79 1009.9
20260506090531 64 209 2.0 9.0 0.00 0.00 0.00 78 1009.9
20260506090030 64 236 2.0 7.0 0.00 0.00 0.00 78 1010.0
20260506085526 64 167 2.0 7.0 0.00 0.00 0.00 78 1010.0
20260506085021 64 214 2.0 7.0 0.00 0.00 0.00 78 1010.0
20260506084459 65 200 2.0 7.0 0.00 0.00 0.00 78 1010.0
20260506084201 65 156 2.0 7.0 0.00 0.00 0.00 77 1009.9
20260506083901 65 199 3.0 7.0 0.00 0.00 0.00 77 1009.9
20260506083117 65 202 3.0 7.0 0.00 0.00 0.00 77 1010.0
20260506082612 65 169 2.0 7.0 0.00 0.00 0.00 77 1010.0
20260506082053 65 192 3.0 9.0 0.00 0.00 0.00 77 1010.1
20260506081545 65 127 3.0 9.0 0.00 0.00 0.00 77 1010.1
20260506081029 65 196 2.0 9.0 0.00 0.00 0.00 77 1010.3
20260506080314 65 221 2.0 6.0 0.00 0.00 0.00 77 1010.1
20260506073158 66 210 2.0 8.0 0.00 0.02 0.00 75 1010.3
20260506072659 66 183 2.0 6.0 0.00 0.02 0.00 74 1010.3
20260506072143 66 207 2.0 9.0 0.00 0.02 0.00 74 1010.3
20260506071845 67 205 2.0 9.0 0.00 0.02 0.00 73 1010.3
20260506071119 67 131 2.0 7.0 0.00 0.02 0.00 73 1010.3
20260506070551 67 168 2.0 8.0 0.00 0.02 0.00 73 1010.3
20260506061926 67 214 2.0 7.0 0.00 0.02 0.00 72 1010.6
20260506061919 67 236 2.0 7.0 0.00 0.02 0.00 72 1010.6
20260506060917 67 184 2.0 9.0 0.00 0.02 0.00 72 1010.6
20260506060350 67 271 2.0 9.0 0.00 0.02 0.00 72 1010.5
20260506051035 67 224 1.0 4.0 0.00 0.02 0.00 72 1011.0
20260506050531 67 203 1.0 3.0 0.00 0.02 0.00 71 1011.1
20260506050259 67 221 0.0 3.0 0.00 0.02 0.00 71 1011.1
20260506044727 67 224 1.0 4.0 0.00 0.02 0.00 71 1011.2
20260506043949 67 229 1.0 4.0 0.00 0.02 0.00 71 1011.3
20260506043445 67 209 2.0 6.0 0.00 0.02 0.00 70 1011.2
20260506042941 67 231 2.0 9.0 0.00 0.02 0.00 70 1011.2
20260506042439 67 223 2.0 9.0 0.00 0.02 0.00 70 1011.2
20260506041938 67 212 1.0 7.0 0.00 0.02 0.00 70 1011.2
20260506041645 67 181 2.0 7.0 0.00 0.02 0.00 70 1011.2
20260506041131 67 185 1.0 6.0 0.00 0.02 0.00 70 1011.2
20260506040341 67 216 1.0 4.0 0.00 0.02 0.00 70 1011.1
20260506035836 67 225 1.0 5.0 0.00 0.02 0.02 70 1011.0
20260506035330 67 166 1.0 6.0 0.00 0.02 0.02 70 1011.0
20260506034829 67 195 1.0 6.0 0.00 0.02 0.02 69 1011.0
20260506034318 67 193 0.0 4.0 0.00 0.02 0.02 69 1011.0
20260506033818 67 192 1.0 4.0 0.00 0.02 0.02 69 1011.0
20260506033252 67 227 1.0 4.0 0.00 0.02 0.02 69 1010.9
20260506032748 67 224 1.0 5.0 0.00 0.02 0.02 68 1010.8
20260506032446 67 188 1.0 5.0 0.00 0.02 0.02 68 1010.8
20260506031654 67 208 1.0 5.0 0.00 0.02 0.02 67 1011.0
20260506031153 68 203 1.0 5.0 0.00 0.02 0.02 67 1011.0
20260506030628 68 214 2.0 6.0 0.00 0.02 0.02 67 1011.1
20260506030331 68 200 1.0 6.0 0.00 0.02 0.02 67 1011.2
20260506025558 68 233 2.0 6.0 0.00 0.02 0.02 66 1011.2
20260506025031 68 218 1.0 6.0 0.00 0.02 0.02 66 1011.2
20260506024507 68 237 0.0 3.0 0.00 0.02 0.02 65 1011.2
20260506023936 69 197 1.0 7.0 0.00 0.02 0.02 65 1011.2
20260506023434 69 191 2.0 7.0 0.00 0.02 0.02 64 1011.2
20260506022908 69 300 2.0 8.0 0.00 0.02 0.02 64 1011.2
20260506022405 69 189 2.0 8.0 0.00 0.02 0.02 63 1011.2
20260506021836 69 153 2.0 7.0 0.00 0.02 0.02 63 1011.1
20260506021336 69 205 2.0 7.0 0.00 0.02 0.02 62 1011.0
20260506020819 70 199 2.0 7.0 0.00 0.02 0.02 62 1011.0
20260506020306 70 113 2.0 7.0 0.00 0.02 0.02 61 1011.0
20260506015737 70 167 2.0 6.0 0.00 0.02 0.02 60 1010.9
20260506015235 71 214 2.0 6.0 0.00 0.02 0.02 60 1010.9
20260506014706 71 240 2.0 9.0 0.00 0.02 0.02 59 1010.8
20260506014430 71 198 2.0 10.0 0.00 0.02 0.02 58 1010.8
20260506013702 71 218 1.0 7.0 0.00 0.02 0.02 57 1010.6
20260506013200 71 224 2.0 5.0 0.00 0.02 0.02 57 1010.6
20260506012635 72 199 2.0 6.0 0.00 0.02 0.02 57 1010.4
20260506012132 72 239 2.0 7.0 0.00 0.02 0.02 56 1010.4
20260506011631 72 229 2.0 7.0 0.00 0.02 0.02 55 1010.4
20260506011333 72 188 2.0 10.0 0.00 0.02 0.02 55 1010.3
20260506010601 73 193 3.0 10.0 0.00 0.02 0.02 54 1010.1
20260506010521 73 230 2.0 9.0 0.00 0.02 0.02 53 1010.1
20260506005729 73 219 3.0 7.0 0.00 0.02 0.02 52 1010.1
20260506005007 73 194 3.0 9.0 0.00 0.02 0.02 51 1010.1
20260506004710 74 151 3.0 9.0 0.00 0.02 0.02 51 1010.0
20260506003941 74 172 3.0 10.0 0.00 0.02 0.02 51 1010.0
20260506003438 74 187 2.0 10.0 0.00 0.02 0.02 50 1010.0
20260506003419 74 236 2.0 6.0 0.00 0.02 0.02 50 1009.9
20260506002413 74 262 3.0 7.0 0.00 0.02 0.02 50 1009.8
20260506001852 74 262 3.0 9.0 0.00 0.02 0.02 49 1009.8
20260506001345 74 188 2.0 8.0 0.00 0.02 0.02 49 1009.8
20260506000842 74 196 3.0 10.0 0.00 0.02 0.02 49 1009.7
20260506000340 74 235 3.0 10.0 0.00 0.02 0.02 48 1009.6
20260505235605 75 209 2.0 10.0 0.00 0.02 0.02 48 1009.6
20260505234836 75 261 3.0 13.0 0.00 0.02 0.02 48 1009.6
20260505234319 75 200 4.0 13.0 0.00 0.02 0.02 47 1009.5
20260505233823 75 176 3.0 10.0 0.00 0.02 0.02 47 1009.5
20260505233308 76 234 4.0 13.0 0.00 0.02 0.02 48 1009.4
20260505232747 76 207 4.0 13.0 0.00 0.02 0.02 47 1009.5
20260505232247 76 204 3.0 9.0 0.00 0.02 0.02 47 1009.4
20260505231723 76 204 4.0 18.0 0.00 0.02 0.02 47 1009.4